[[[{"header":{"parameterUnit":"kt","parameterCategory":2,"dx":1,"dy":1,"la1":30.253999710083008,"la2":30.299108505249023,"lo1":-89.0895004272461,"lo2":-89.04439544677734,"nx":28,"ny":28,"refTime":"2022-10-23T21:00:00:Z","depth":0,"parameterNumber":1,"parameterNumberName":"U-component_of_WINDS"},"data":[-7.7524,-7.7689,-7.7727,-7.7932,-7.8001,-7.8146,-7.821,-7.8296,-7.8375,-7.8551,-7.8659,-7.8714,-7.8805,-7.8942,-7.9059,-7.908,-7.9125,-7.9155,-7.9174,-7.9007,-7.8986,-7.8966,-7.8928,-7.9166,-7.9166,-7.9339,-7.934,-7.9342,-7.7396,-7.7466,-7.7587,-7.7729,-7.7832,-7.7826,-7.7938,-7.8023,-7.8153,-7.8252,-7.836,-7.8519,-7.8648,-7.8731,-7.8861,-7.8936,-7.8939,-7.8968,-7.896,-7.8974,-7.8798,-7.8758,-7.8963,-7.8963,-7.8963,-7.8963,-7.8963,-7.8963,-7.7172,-7.727,-7.7379,-7.751,-7.7592,-7.7687,-7.7786,-7.7851,-7.7968,-7.811,-7.8133,-7.828,-7.8384,-7.8559,-7.8627,-7.8741,-7.8715,-7.8758,-7.8768,-7.8776,-7.878,-7.8518,-7.8766,-7.8766,-7.8765,-7.8765,-7.8765,0,-7.7019,-7.7044,-7.7163,-7.7293,-7.7391,-7.7495,-7.7596,-7.7659,-7.7724,-7.7819,-7.7957,-7.8043,-7.8213,-7.8345,-7.8476,-7.8538,-7.8537,-7.8543,-7.8572,-7.8559,-7.8531,-7.8543,-7.8251,-7.8534,-7.8532,-7.8531,-7.853,-7.8529,-7.6791,-7.6902,-7.7035,-7.7113,-7.7178,-7.7304,-7.7386,-7.7436,-7.752,-7.7652,-7.7735,-7.7871,-7.7981,-7.8196,-7.8268,-7.8394,-7.8393,-7.8497,-7.8412,-7.8397,-7.8389,-7.838,-7.8389,-7.851,-7.8512,-7.8514,-7.8516,0,-7.6658,-7.6721,-7.6906,-7.7026,-7.706,-7.7173,-7.7275,-7.7375,-7.7427,-7.757,-7.7607,-7.7687,-7.7822,-7.7879,-7.8044,-7.8069,-7.8251,-7.825,-7.8214,-7.8215,-7.8309,-7.8298,-7.8617,-7.8659,-7.8419,-7.8421,-7.8423,0,-7.6486,-7.6631,-7.6715,-7.6819,-7.698,-7.7026,-7.7184,-7.7244,-7.7336,-7.745,-7.7461,-7.7567,-7.7622,-7.7737,-7.7773,-7.7933,-7.7966,-7.7992,-7.7998,-7.7988,-7.7984,-7.8028,-7.8014,-7.8017,-7.8015,-7.8014,-7.8012,0,-7.6267,-7.6484,-7.6654,-7.6712,-7.6855,-7.6933,-7.6996,-7.7099,-7.7179,-7.7292,-7.7343,-7.7472,-7.754,-7.7639,-7.7684,-7.7624,-7.7882,-7.7809,-7.7908,-7.7907,-7.7958,-7.7953,-7.8227,-7.801,-7.801,-7.8009,-7.8009,0,-7.6135,-7.6251,-7.649,-7.6608,-7.6662,-7.6775,-7.6903,-7.7013,-7.7121,-7.7152,-7.7241,-7.7252,-7.74,-7.7323,-7.7525,-7.7433,-7.75,-7.754,-7.7548,-7.7559,-7.7469,-7.7609,-7.7869,-7.7895,-7.7576,-7.7573,-7.757,0,-7.5865,-7.6124,-7.6165,-7.6391,-7.6517,-7.6519,-7.6645,-7.674,-7.6792,-7.6905,-7.6961,-7.709,-7.7044,-7.7091,-7.7186,-7.7247,-7.7367,-7.7233,-7.7389,-7.7394,-7.7355,-7.7596,-7.7618,-7.7807,-7.7525,-7.753,-7.7533,0,-7.5663,-7.5836,-7.5874,-7.5942,-7.6077,-7.6184,-7.6329,-7.6467,-7.654,-7.6648,-7.6768,-7.6953,-7.6924,-7.7003,-7.7026,-7.712,-7.7287,-7.7076,-7.7079,-7.7108,-7.7508,-7.7528,-7.756,-7.7281,-7.7287,-7.7291,-7.7497,0,-7.5441,-7.558,-7.5686,-7.5837,-7.5929,-7.6075,-7.6135,-7.6223,-7.6235,-7.6285,-7.6466,-7.6559,-7.6698,-7.6751,-7.6764,-7.6964,-7.6938,-7.6906,-7.683,-7.699,-7.7058,-7.7087,-7.6723,-7.6721,-7.6719,-7.6718,0,0,-7.5164,-7.5363,-7.5404,-7.5547,-7.5626,-7.5625,-7.5775,-7.5852,-7.6007,-7.606,-7.602,-7.6292,-7.6369,-7.658,-7.6635,-7.6693,-7.6732,-7.6674,-7.6915,-7.6936,-7.6956,-7.7029,-7.7058,-7.6715,-7.6714,-7.6714,-7.6713,0,-7.5094,-7.5178,-7.5327,-7.5409,-7.5531,-7.5578,-7.5614,-7.5734,-7.5773,-7.5951,-7.5945,-7.606,-7.6277,-7.6358,-7.6427,-7.6652,-7.6638,-7.6691,-7.679,-7.6897,-7.6921,-7.6942,-7.7018,-7.7045,-7.671,-7.671,-7.671,0,-7.4901,-7.4991,-7.5071,-7.5254,-7.5333,-7.5464,-7.54,-7.5542,-7.5639,-7.5627,-7.5803,-7.5863,-7.5977,-7.6171,-7.626,-7.6225,-7.6548,-7.6458,-7.647,-7.6479,-7.6585,-7.6614,-7.6639,-7.6303,-7.6301,-7.6299,0,0,-7.4832,-7.4962,-7.5072,-7.5243,-7.5294,-7.5365,-7.5441,-7.5461,-7.5565,-7.5606,-7.5681,-7.5781,-7.5907,-7.5989,-7.6111,-7.6317,-7.6342,-7.6406,-7.6425,-7.6441,-7.6458,-7.6568,-7.6596,-7.6293,-7.6293,-7.6293,0,0,-7.4798,-7.4933,-7.4928,-7.5134,-7.5234,-7.5352,-7.5453,-7.5448,-7.5564,-7.5553,-7.5592,-7.562,-7.5803,-7.5861,-7.5771,-7.6084,-7.6008,-7.6031,-7.6038,-7.6063,-7.6082,-7.6062,-7.5714,0,0,0,0,0,-7.4757,-7.4917,-7.4911,-7.4954,-7.5184,-7.5356,-7.5385,-7.5422,-7.5367,-7.5446,-7.5508,-7.5489,-7.582,-7.5741,-7.5782,-7.5881,-7.6212,-7.6226,-7.624,-7.6298,-7.6324,-7.6345,0,0,0,0,0,0,-7.4774,-7.4827,-7.4906,-7.5031,-7.5083,-7.535,-7.5265,-7.5279,-7.5359,-7.5353,-7.5478,-7.5493,-7.5526,-7.5722,-7.5759,-7.5852,-7.5702,-7.6218,-7.623,-7.6241,-7.6307,-7.6328,-7.6346,0,0,0,0,0,-7.4788,-7.4831,-7.5191,-7.5029,-7.5074,-7.5161,-7.5259,-7.527,-7.5333,-7.5429,-7.5443,-7.5353,-7.5528,-7.5561,-7.5744,-7.5834,-7.5677,-7.569,-7.6225,-7.6235,-7.6244,-7.6317,0,0,0,0,0,0,-7.4798,-7.4842,-7.5201,-7.5216,-7.4971,-7.5147,-7.5176,-7.5263,-7.5404,-7.542,-7.5305,-7.5298,-7.5531,-7.5556,-7.5582,-7.5826,-7.5656,-7.567,-7.5679,-7.6233,-7.624,-7.6247,0,0,0,0,0,0,-7.4819,-7.4854,-7.5209,-7.5134,-7.514,-7.5133,-7.5159,-7.5319,-7.5405,-7.5272,-7.5271,-7.53,-7.5492,-7.5554,-7.5574,-7.5823,-7.5641,-7.5654,-7.5663,-7.5669,-7.6239,-7.6245,0,0,0,0,0,0,-7.4834,-7.4865,-7.513,-7.5135,-7.5141,-7.5312,-7.5275,-7.5509,-7.5343,-7.5265,-7.5329,-7.5323,-7.549,-7.551,-7.5568,-7.5809,-7.5819,-7.5641,-7.565,-7.5656,-7.5661,0,0,0,0,0,0,0,-7.4847,-7.4634,-7.5112,-7.5137,-7.5141,-7.5355,-7.5359,-7.5363,-7.5342,-7.5336,-7.5331,-7.5325,-7.5565,-7.558,-7.5594,-7.5797,0,0,-7.564,-7.5646,0,0,0,0,0,0,0,0,-7.4622,-7.4631,-7.5112,-7.5115,-7.5119,-7.5356,-7.5359,-7.5362,-7.5341,-7.5336,-7.5332,-7.5328,-7.5569,-7.5581,-7.5593,0,0,0,0,0,0,0,0,0,0,0,0,0,0,0,-7.5113,-7.5115,0,-7.5356,-7.5359,-7.5362,-7.534,-7.5336,-7.5333,-7.5329,-7.5572,-7.5582,-7.5592,0,0,0,0,0,0,0,0,0,0,0,0,0,0,0,0,0,0,0,0,0,0,0,0,0,0,0,0,0,0,0,0,0,0,0,0,0,0,0,0,0,0,0,0,0,0,0,0,0,0,0,0,0,0,0,0,0,0,0,0,0,0,0,0,0,0,0,0,0]}],[{"header":{"parameterUnit":"kt","parameterCategory":2,"dx":1,"dy":1,"la1":30.253999710083008,"la2":30.299108505249023,"lo1":-89.0895004272461,"lo2":-89.04439544677734,"nx":28,"ny":28,"refTime":"2022-10-23T21:00:00:Z","depth":0,"parameterNumber":2,"parameterNumberName":"V-component_of_WINDS"},"data":[8.6008,8.6181,8.6183,8.638,8.6414,8.6547,8.6595,8.6656,8.6703,8.6861,8.695,8.6965,8.7009,8.7114,8.7208,8.7212,8.7251,8.7314,8.7307,8.7028,8.6989,8.6951,8.691,8.7324,8.7324,8.7594,8.7597,8.7599,8.5807,8.5843,8.5948,8.6049,8.6138,8.6078,8.6152,8.623,8.635,8.6409,8.6497,8.6634,8.6741,8.6762,8.6863,8.6941,8.6916,8.6969,8.6961,8.6968,8.6671,8.6627,8.6988,8.6988,8.6988,8.6987,8.6987,8.6987,8.5441,8.5546,8.5606,8.5719,8.577,8.5837,8.5934,8.5951,8.6051,8.6158,8.6135,8.6269,8.6325,8.6444,8.6482,8.6584,8.6524,8.6579,8.6592,8.6606,8.6622,8.6231,8.6601,8.66,8.6599,8.6598,8.6598,0,8.5172,8.5165,8.5264,8.5365,8.5446,8.5522,8.5591,8.5652,8.563,8.5713,8.5832,8.5899,8.6032,8.6141,8.6233,8.626,8.6199,8.6194,8.6231,8.6242,8.6243,8.6243,8.5756,8.6181,8.6177,8.6175,8.6173,8.6172,8.48,8.4922,8.4983,8.5053,8.509,8.5203,8.5269,8.5241,8.5311,8.539,8.5481,8.5591,8.5677,8.5865,8.5875,8.5973,8.5943,8.6106,8.5956,8.5965,8.5942,8.5934,8.5945,8.6133,8.6138,8.6142,8.6145,0,8.4591,8.4587,8.4774,8.4821,8.4836,8.4964,8.5002,8.5104,8.5106,8.5244,8.5275,8.5277,8.5392,8.5377,8.5503,8.5491,8.5698,8.5668,8.5679,8.5671,8.5814,8.58,8.6282,8.6343,8.5917,8.5921,8.5924,0,8.427,8.443,8.4414,8.4523,8.4699,8.4665,8.484,8.4859,8.4906,8.5014,8.4945,8.5048,8.5011,8.5112,8.5094,8.526,8.5284,8.5283,8.5275,8.5288,8.5288,8.5319,8.5298,8.5257,8.5254,8.5252,8.525,0,8.394,8.4118,8.4295,8.4334,8.4397,8.4481,8.451,8.4561,8.4625,8.4705,8.4745,8.484,8.4891,8.4964,8.494,8.4839,8.5143,8.4999,8.5141,8.5142,8.5206,8.5201,8.5637,8.5247,8.5246,8.5246,8.5245,0,8.3677,8.3762,8.402,8.407,8.4117,8.4233,8.4324,8.442,8.4478,8.4474,8.4536,8.4485,8.463,8.4489,8.4687,8.4563,8.4617,8.4629,8.4639,8.4647,8.4487,8.4731,8.5151,8.5193,8.466,8.4656,8.4651,0,8.33,8.3558,8.3529,8.3773,8.3889,8.3802,8.393,8.3983,8.3989,8.4086,8.409,8.42,8.4091,8.4122,8.4224,8.4231,8.4393,8.4209,8.4344,8.4349,8.4329,8.4716,8.4781,8.5062,8.4589,8.4595,8.46,0,8.3005,8.308,8.3126,8.3168,8.3234,8.3329,8.3477,8.3578,8.3644,8.3712,8.3831,8.3986,8.3909,8.3961,8.3928,8.4034,8.4282,8.3936,8.3936,8.3997,8.4556,8.4617,8.4665,8.4236,8.4244,8.425,8.455,0,8.2607,8.2734,8.2857,8.2951,8.3023,8.3174,8.3157,8.3234,8.3196,8.3196,8.3373,8.3408,8.3508,8.3558,8.352,8.3768,8.3722,8.3638,8.3494,8.375,8.3848,8.3888,8.3351,8.3346,8.3343,8.334,0,0,8.2244,8.2425,8.2386,8.2527,8.2585,8.2489,8.2652,8.2696,8.2787,8.2828,8.2749,8.2971,8.3002,8.3217,8.3295,8.3337,8.3378,8.3288,8.3629,8.3662,8.3692,8.3797,8.384,8.3333,8.3332,8.333,8.3329,0,8.2093,8.2133,8.2296,8.2341,8.2405,8.2397,8.2437,8.2482,8.2489,8.2661,8.2576,8.2679,8.2856,8.29,8.2946,8.3264,8.319,8.3296,8.3473,8.3593,8.3631,8.3664,8.3775,8.3816,8.332,8.3321,8.3321,0,8.1797,8.1833,8.1909,8.2036,8.2075,8.2196,8.2043,8.2176,8.2264,8.2146,8.2318,8.2335,8.2391,8.2598,8.2689,8.2619,8.3021,8.289,8.2913,8.2921,8.3035,8.308,8.312,8.2593,8.259,8.2588,0,0,8.1669,8.1786,8.1811,8.2001,8.2033,8.2023,8.2084,8.2051,8.2105,8.2127,8.2146,8.22,8.2302,8.237,8.2464,8.2694,8.2701,8.2801,8.2836,8.2864,8.2887,8.301,8.3054,8.2579,8.2579,8.2578,0,0,8.1606,8.1643,8.1594,8.1813,8.187,8.1904,8.202,8.196,8.2043,8.2022,8.1968,8.198,8.2172,8.2191,8.2071,8.2411,8.2271,8.2299,8.2392,8.2435,8.2468,8.2458,8.1914,0,0,0,0,0,8.144,8.1638,8.1594,8.1628,8.1785,8.1929,8.1949,8.191,8.1812,8.1905,8.1911,8.1828,8.2115,8.2007,8.204,8.2173,8.246,8.2481,8.2501,8.2675,8.272,8.2758,0,0,0,0,0,0,8.1453,8.1495,8.1589,8.1632,8.1667,8.1922,8.1747,8.1741,8.1801,8.1783,8.183,8.183,8.1798,8.1988,8.2018,8.2145,8.1903,8.2468,8.2486,8.2502,8.269,8.2727,8.2759,0,0,0,0,0,8.1463,8.1497,8.1758,8.1629,8.1659,8.1656,8.1739,8.1733,8.1778,8.1786,8.1783,8.1744,8.1803,8.1825,8.2005,8.2132,8.1882,8.1894,8.248,8.2494,8.2507,8.2708,0,0,0,0,0,0,8.1471,8.1491,8.1763,8.1771,8.155,8.1641,8.1654,8.1726,8.1776,8.1775,8.1696,8.1681,8.1809,8.1825,8.1843,8.213,8.1865,8.1877,8.1884,8.2491,8.2502,8.2511,0,0,0,0,0,0,8.1473,8.1499,8.1767,8.1671,8.1667,8.1627,8.1639,8.1785,8.1777,8.1682,8.1671,8.1689,8.178,8.1826,8.1839,8.2069,8.1852,8.1863,8.1871,8.1875,8.25,8.2508,0,0,0,0,0,0,8.1483,8.1505,8.1668,8.1666,8.1662,8.1744,8.1755,8.1916,8.1698,8.1681,8.1677,8.1668,8.1784,8.1796,8.1837,8.2062,8.2067,8.1852,8.186,8.1865,8.1869,0,0,0,0,0,0,0,8.1491,8.1355,8.1719,8.1661,8.1658,8.1842,8.1844,8.1846,8.1696,8.1688,8.168,8.1672,8.1789,8.1801,8.1813,8.2057,0,0,8.1851,8.1856,0,0,0,0,0,0,0,0,8.1344,8.1352,8.1719,8.172,8.1722,8.1842,8.1844,8.1846,8.1695,8.1688,8.1681,8.1675,8.1792,8.1802,8.1812,0,0,0,0,0,0,0,0,0,0,0,0,0,0,0,8.1719,8.172,0,8.1843,8.1844,8.1845,8.1694,8.1688,8.1683,8.1677,8.1795,8.1803,8.1811,0,0,0,0,0,0,0,0,0,0,0,0,0,0,0,0,0,0,0,0,0,0,0,0,0,0,0,0,0,0,0,0,0,0,0,0,0,0,0,0,0,0,0,0,0,0,0,0,0,0,0,0,0,0,0,0,0,0,0,0,0,0,0,0,0,0,0,0,0]}]]]